Location: Hilton Head Island
(32.2163°N, 80.7526°W)
Time: 00:51:32
(UTC-05:00)

Vanguard 2 Rocket - Pass Details

Date: 25 February 2026
Orbit: 553 x 3287 km, 32.9° (Epoch: 5 March)

Event Time Altitude Azimuth Distance (km) Brightness Sun altitude
Rises 11:31:34 0° 255° (WSW) 6,856 11.3 46.1°
Reaches altitude 10° 11:35:51 10° 255° (WSW) 6,022 11.1 46.4°
Maximum altitude 11:56:08 88° 169° (SSE) 3,185 10.6 47.8°
Drops below altitude 10° 12:12:58 10° 82° (E) 5,139 10.9 48.5°
Sets 12:16:17 0° 82° (E) 5,857 11.0 48.6°
